Voltar ao catálogo

ATLAS 5 CENTAUR DEB

AtivoHEO
NORAD 52971·DEBRIS·🇺🇸 United States

Lançado Oct 17, 2018 de Cape Canaveral Space Force Station

Loading…

Próximas Passagens (próximas 24 horas)

TLE

EnvelhecendoSource: Space-Track

Época: Aug 24, 2026, 19:27 UTC

1 52971U 18079GV  26236.81089769 -.00000187  00000-0  00000+0 0  9992
2 52971  13.1709  31.1138 4771705 332.4625   8.6560  1.82283214 32113

Acompanhe ATLAS 5 CENTAUR DEB em tempo real com AllMySat

Download on the App Store